Location: *
(35.2348°S, 91.3916°E)
Time: 08:13:32
(UTC+00:00)

NOAA 11 - Pass Details

Date: 23 October 2019
Orbit: 833 x 850 km, 98.4° (Epoch: 13 November)

Event Time Altitude Azimuth Distance (km) Brightness Sun altitude
Rises 13:07:59 0° 160° (SSE) 3,446 7.4 -10.9°
Reaches altitude 10° 13:10:30 10° 153° (SSE) 2,502 6.6 -11.4°
Maximum altitude 13:15:48 45° 81° (E) 1,158 4.5 -12.4°
Drops below altitude 10° 13:21:01 10° 9° (N) 2,463 6.3 -13.4°
Sets 13:23:27 0° 3° (N) 3,387 7.1 -13.8°
